Location: Brno
(49.2000°N, 16.6330°E)
Time: 03:23:47
(UTC+01:00)

CARTOSAT-1 - Visible Passes

Search period start: 06 March 2015 00:00
Search period end: 16 March 2015 00:00
Orbit: 617 x 619 km, 97.8° (Epoch: 05 March)

Date Brightness Start Highest point End Pass type
(mag) Time Alt. Az. Time Alt. Az. Time Alt. Az.
06 Mar 6.5 21:42:56 12° NNW 21:42:56 12° NNW 21:43:17 10° NNW visible
07 Mar 6.1 20:22:37 11° NNE 20:22:37 11° NNE 20:22:57 10° NNE visible
07 Mar 6.7 21:59:45 11° NNW 21:59:45 11° NNW 21:59:59 10° NNW visible
08 Mar 6.0 20:39:26 13° NNE 20:39:26 13° NNE 20:40:06 10° N visible
08 Mar 6.8 22:16:33 10° NNW 22:16:33 10° NNW 22:16:35 10° NNW visible
09 Mar 6.0 20:56:14 15° N 20:56:14 15° N 20:57:06 10° N visible
10 Mar 6.0 21:13:01 16° N 21:13:01 16° N 21:14:00 10° N visible
11 Mar 6.1 21:29:48 17° N 21:29:48 17° N 21:30:49 10° N visible
12 Mar 5.9 20:09:28 12° NNE 20:09:28 12° NNE 20:10:00 10° NNE visible
12 Mar 6.2 21:46:35 16° NNW 21:46:35 16° NNW 21:47:32 10° NNW visible
13 Mar 5.8 20:26:15 14° NNE 20:26:15 14° NNE 20:27:18 10° NNE visible
13 Mar 6.4 22:03:22 15° NNW 22:03:22 15° NNW 22:04:11 10° NNW visible
14 Mar 5.7 20:43:02 17° NNE 20:43:02 17° NNE 20:44:23 10° N visible
14 Mar 6.6 22:20:09 13° NNW 22:20:09 13° NNW 22:20:45 10° NNW visible
15 Mar 5.6 20:59:48 20° NNE 20:59:48 20° NNE 21:01:20 10° N visible
15 Mar 6.7 22:36:55 11° NW 22:36:55 11° NW 22:37:10 10° NW visible
